Miscellaneous Local Product
Issued by NWS Hastings, NE

Home | Current Version | Previous Version | Graphics & Text | Print | Product List | Glossary On
Versions: 1 2 3 4 5 6 7 8 9 10 11 12 13 14 15 16 17 18 19 20 21 22 23 24 25 26 27 28 29 30 31 32 33 34 35 36 37 38 39 40 41 42 43 44 45 46 47 48 49 50
000
AXUS43 KGID 310302
MISGRI

GID CWA HOURLY WEATHER ROUNDUP
NATIONAL WEATHER SERVICE HASTINGS NE
900 PM CST FRI JAN 30 2015

NOTE: "FAIR" INDICATES FEW OR NO CLOUDS BELOW 12,000 FEET WITH NO
SIGNIFICANT WEATHER AND/OR OBSTRUCTIONS TO VISIBILITY.

...SOUTH CENTRAL NEBRASKA...

CITY           SKY/WX    TMP DP  RH WIND       PRES   REMARKS
GRAND ISLAND   CLOUDY    40  26  57 S13       30.23F WCI  32
HASTINGS       CLOUDY    41  26  55 SW12G20   30.22F
KEARNEY        CLOUDY    39  30  70 S18       30.21F WCI  30
ORD            CLOUDY    39  26  59 S9        30.17F WCI  33
YORK           CLOUDY    36  27  69 S7        30.25S WCI  30
AURORA         CLOUDY    40  26  59 S8        30.24S WCI  34
LEXINGTON      CLOUDY    41  32  70 S20       30.20S
HOLDREGE       CLOUDY    38  32  78 S17       30.23R WCI  29
HEBRON         CLOUDY    40  25  55 S10       30.28F WCI  33

...NEBRASKA PANHANDLE...

CITY           SKY/WX    TMP DP  RH WIND       PRES   REMARKS
CHADRON        CLOUDY    31  25  78 W3        30.13S
ALLIANCE       CLOUDY    32  27  81 N7        30.08F WCI  26
SCOTTSBLUFF    CLOUDY    33  28  81 N7        30.09F WCI  27
SIDNEY         CLOUDY    36  26  67 N8        30.07F WCI  30

...WESTERN AND NORTH CENTRAL NEBRASKA...

CITY           SKY/WX    TMP DP  RH WIND       PRES   REMARKS
VALENTINE      CLOUDY    33  27  78 S6        30.13F WCI  28
AINSWORTH      CLOUDY    36  27  71 S8        30.13F WCI  29
ONEILL         CLOUDY    37  28  69 SW8       30.16F WCI  31
BROKEN BOW     CLOUDY    39  28  64 S6        30.16F WCI  35
IMPERIAL       CLOUDY    39  31  72 S16       30.11F WCI  30
NORTH PLATTE   CLOUDY    39  29  67 S9        30.14F WCI  33
MCCOOK         CLOUDY    39  34  82 S8G17     30.19F WCI  33

...EASTERN NEBRASKA...

CITY           SKY/WX    TMP DP  RH WIND       PRES   REMARKS
NORFOLK        CLOUDY    37  27  67 S12       30.20F WCI  29
SO SIOUX CITY  CLEAR     31  25  78 SE8       30.23F WCI  23
TEKAMAH        MOCLDY    32  25  75 S10       30.26F WCI  24
COLUMBUS       CLOUDY    37  25  60 S10       30.25S WCI  30
ALBION         CLOUDY    36  25  65 S6        30.20F WCI  31
OMAHA EPPLEY   CLOUDY    33  25  72 SE9       30.29S WCI  25
OFFUTT AFB     CLOUDY    32  25  74 SE6       30.29S WCI  27
MILLARD        CLOUDY    33  25  71 S3        30.29S
LINCOLN        CLOUDY    36  25  64 S8        30.29S WCI  30
NEBRASKA CITY  CLOUDY    31  22  67 S7        30.31S WCI  24
BEATRICE       CLOUDY    35  26  67 S7        30.30S WCI  29
FALLS CITY     CLOUDY    31  21  66 S5        30.33F WCI  26

...NORTHERN KANSAS...

CITY           SKY/WX    TMP DP  RH WIND       PRES   REMARKS
GOODLAND       CLOUDY    34  32  92 S18       30.13F WCI  23
HILL CITY      LGT SNOW  35  32  88 S9        30.25F FOG     WCI  28
NORTON         LGT RAIN  36  30  80 S10       30.22S WCI  28
PHILLIPSBURG   DRIZZLE   39  36  87 S8        30.27S WCI  34
SMITH CENTER   LGT RAIN  36  34  93 S9        30.29R WCI  29
BELOIT         CLOUDY    37  34  87 S5        30.30S WCI  34
HAYS           CLOUDY    37  27  65 SW14      30.27F WCI  29
RUSSELL        FLURRIES  36  32  85 S10       30.28R WCI  28
CONCORDIA      LGT RAIN  37  33  85 S10       30.31S WCI  30
SALINA         LGT RAIN  38  33  82 S5        30.33F WCI  34
TOPEKA         CLOUDY    37  23  56 S5        30.37F WCI  33



USA.gov is the U.S. government's official web portal to all federal, state and local government web resources and services.